N1QWW Weather Reports


Display with metric or nautical units.
time (UTC)temp
F
wind
direction
speed
MPH
gust
MPH
rain 1hr
in
rain 24hr
in
rain mn
in
humidity
%
barometer
mb
20210918133122 65 74 0.0 4.0 0.00 0.05 0.00 99 1017.3
20210918131612 65 122 0.0 5.0 0.00 0.05 0.00 100 1017.1
20210918130148 65 273 1.0 5.0 0.00 0.05 0.00 100 1017.3
20210918124559 65 277 1.0 5.0 0.00 0.05 0.00 100 1017.3
20210918123112 65 97 0.0 5.0 0.00 0.05 0.00 100 1017.1
20210918121625 65 91 0.0 4.0 0.00 0.05 0.00 100 1017.1
20210918120054 65 81 0.0 5.0 0.00 0.05 0.00 100 1017.2
20210918114551 65 94 1.0 4.0 0.00 0.05 0.00 100 1017.1
20210918113045 65 58 1.0 5.0 0.00 0.05 0.00 100 1017.1
20210918111549 65 111 1.0 5.0 0.00 0.05 0.00 100 1017.4
20210918110106 65 100 1.0 5.0 0.00 0.05 0.00 100 1017.6
20210918104545 65 52 0.0 4.0 0.00 0.05 0.00 100 1017.3
20210918103053 65 337 1.0 4.0 0.00 0.05 0.00 100 1017.2
20210918101532 65 93 0.0 4.0 0.00 0.05 0.00 100 1017.3
20210918100137 65 329 0.0 1.0 0.00 0.05 0.00 100 1017.3
20210918094626 65 102 1.0 4.0 0.00 0.05 0.00 100 1017.3
20210918093043 65 103 0.0 3.0 0.00 0.05 0.00 100 1017.4
20210918091539 64 269 0.0 3.0 0.00 0.05 0.00 100 1017.3
20210918090109 64 85 0.0 4.0 0.00 0.05 0.00 100 1017.3
20210918084542 64 90 0.0 3.0 0.00 0.05 0.00 99 1017.3
20210918083027 64 349 0.0 4.0 0.00 0.05 0.00 99 1017.4
20210918081524 64 348 0.0 3.0 0.00 0.05 0.00 99 1017.4
20210918080021 64 105 0.0 4.0 0.00 0.05 0.00 99 1017.5
20210918074521 64 75 1.0 3.0 0.00 0.05 0.00 99 1017.5
20210918073052 65 274 0.0 3.0 0.00 0.05 0.00 99 1017.4
20210918071538 65 25 0.0 5.0 0.00 0.05 0.00 99 1017.6
20210918070104 65 256 1.0 4.0 0.00 0.05 0.00 99 1017.5
20210918064519 65 72 0.0 2.0 0.00 0.05 0.00 99 1017.7
20210918063037 65 86 0.0 3.0 0.00 0.05 0.00 99 1018.0
20210918061528 65 148 0.0 2.0 0.00 0.05 0.00 99 1018.2
20210918060011 65 278 0.0 3.0 0.00 0.05 0.00 99 1018.4
20210918054507 65 15 0.0 1.0 0.00 0.05 0.00 99 1018.4
20210918053015 65 101 0.0 2.0 0.00 0.05 0.00 99 1018.6
20210918051502 65 70 0.0 2.0 0.00 0.05 0.00 99 1018.8
20210918050150 65 343 0.0 2.0 0.00 0.05 0.00 99 1018.9
20210918044618 65 50 0.0 3.0 0.00 0.05 0.00 99 1019.0
20210918043253 65 82 0.0 2.0 0.00 0.05 0.00 99 1019.2
20210918041600 65 86 0.0 2.0 0.00 0.05 0.00 99 1019.5
20210918040127 65 274 0.0 1.0 0.00 0.05 0.00 99 1019.7
20210918034601 65 304 0.0 1.0 0.00 0.05 0.05 99 1019.8
20210918033152 66 100 0.0 1.0 0.00 0.05 0.05 99 1020.0
20210918031630 66 138 0.0 0.0 0.00 0.05 0.05 99 1020.2
20210918030135 66 72 0.0 0.0 0.00 0.05 0.05 99 1020.3
20210918024616 66 129 0.0 2.0 0.00 0.05 0.05 99 1020.4
20210918023101 66 8 0.0 2.0 0.00 0.05 0.05 99 1020.6
20210918021546 66 64 0.0 2.0 0.00 0.05 0.05 99 1020.7
20210918020054 66 72 0.0 3.0 0.00 0.05 0.05 99 1021.0
20210918014637 66 87 0.0 2.0 0.00 0.05 0.05 99 1021.0
20210918013115 66 3 0.0 1.0 0.00 0.05 0.05 99 1021.1
20210918011642 66 69 0.0 2.0 0.00 0.05 0.05 99 1021.3
20210918010050 66 105 0.0 3.0 0.00 0.05 0.05 99 1021.4
20210918004617 66 56 0.0 2.0 0.00 0.05 0.05 99 1021.5
20210918003133 66 44 0.0 2.0 0.00 0.05 0.05 99 1021.5
20210918001625 66 285 0.0 3.0 0.00 0.05 0.05 99 1021.5
20210918000055 66 80 0.0 3.0 0.00 0.05 0.05 98 1021.6
20210917234556 66 103 0.0 2.0 0.00 0.05 0.05 98 1021.5
20210917233042 67 94 1.0 4.0 0.00 0.05 0.05 98 1021.6
20210917231529 67 136 0.0 4.0 0.00 0.05 0.05 98 1021.4
20210917230028 67 315 1.0 4.0 0.00 0.05 0.05 97 1021.6
20210917223029 68 57 1.0 6.0 0.00 0.05 0.05 96 1021.7
20210917221548 68 68 1.0 4.0 0.00 0.05 0.05 96 1021.8
20210917220024 69 89 1.0 4.0 0.00 0.05 0.05 95 1021.8
20210917214540 69 84 1.0 5.0 0.00 0.05 0.05 95 1022.0
20210917213021 69 22 0.0 3.0 0.00 0.05 0.05 94 1022.3
20210917211517 70 285 0.0 5.0 0.00 0.05 0.05 94 1022.3
20210917210022 70 358 0.0 5.0 0.00 0.05 0.05 93 1022.5
20210917204538 70 288 1.0 5.0 0.00 0.05 0.05 93 1022.7
20210917203037 71 325 0.0 5.0 0.00 0.05 0.05 93 1022.7
20210917201510 71 63 0.0 7.0 0.00 0.05 0.05 93 1022.9
20210917200007 71 103 2.0 5.0 0.00 0.05 0.05 93 1023.0
20210917194509 71 37 0.0 5.0 0.00 0.05 0.05 92 1023.1
20210917193005 71 71 2.0 5.0 0.00 0.05 0.05 93 1023.1
20210917191501 71 84 0.0 4.0 0.00 0.05 0.05 92 1023.0
20210917190125 71 225 0.0 5.0 0.00 0.05 0.05 92 1023.1
20210917184619 71 56 1.0 7.0 0.00 0.05 0.05 93 1023.2
20210917183133 71 35 0.0 4.0 0.00 0.05 0.05 95 1023.5
20210917181621 71 47 1.0 6.0 0.00 0.05 0.05 94 1023.7
20210917180104 71 309 0.0 4.0 0.00 0.05 0.05 95 1023.7
20210917174706 70 86 1.0 7.0 0.00 0.05 0.05 95 1023.7
20210917171634 69 84 0.0 3.0 0.00 0.05 0.05 97 1024.1
20210917170056 69 335 0.0 2.0 0.00 0.05 0.05 97 1024.4
20210917164551 69 342 0.0 4.0 0.00 0.05 0.05 97 1024.6
20210917163042 69 57 0.0 3.0 0.00 0.05 0.05 98 1024.7
20210917161551 69 13 0.0 2.0 0.00 0.05 0.05 98 1024.8
20210917160143 69 286 0.0 2.0 0.00 0.05 0.05 98 1024.8
20210917154539 69 69 1.0 4.0 0.00 0.05 0.05 98 1025.0
20210917153054 69 61 0.0 4.0 0.00 0.05 0.05 98 1025.2
20210917151541 68 351 0.0 4.0 0.01 0.05 0.05 98 1025.4
20210917150122 68 341 0.0 3.0 0.05 0.05 0.05 98 1025.4
20210917144618 68 91 2.0 5.0 0.05 0.05 0.05 98 1025.5
20210917143043 68 100 0.0 1.0 0.05 0.05 0.05 98 1025.7
20210917141603 68 91 0.0 3.0 0.04 0.04 0.04 98 1025.7
20210917140027 68 62 0.0 4.0 0.00 0.00 0.00 97 1025.8
20210917134529 68 89 0.0 2.0 0.00 0.00 0.00 97 1025.8